TimeCEST,TemperatureF,Dew PointF,Humidity,Sea Level PressureIn,VisibilityMPH,Wind Direction,Wind SpeedMPH,Gust SpeedMPH,PrecipitationIn,Events,Conditions,WindDirDegrees,DateUTC
12:20 AM,69.8,64.4,83,30.09,6.2,WSW,5.8,-,N/A,,Partly Cloudy,240,2012-10-02 22:20:00
12:50 AM,69.8,64.4,83,30.09,6.2,WSW,6.9,-,N/A,,Partly Cloudy,250,2012-10-02 22:50:00
1:20 AM,69.8,64.4,83,30.09,6.2,SSW,3.5,-,N/A,,Partly Cloudy,200,2012-10-02 23:20:00
1:50 AM,68.0,64.4,88,30.09,-9999.0,WSW,5.8,-,N/A,,Clear,240,2012-10-02 23:50:00
2:20 AM,68.0,64.4,88,30.09,-9999.0,South,3.5,-,N/A,,Clear,190,2012-10-03 00:20:00
2:50 AM,68.0,62.6,83,30.09,-9999.0,SW,3.5,-,N/A,,Clear,220,2012-10-03 00:50:00
3:20 AM,68.0,62.6,83,30.09,-9999.0,SSE,2.3,-,N/A,,Clear,160,2012-10-03 01:20:00
3:50 AM,68.0,62.6,83,30.09,-9999.0,Variable,1.2,-,N/A,,Clear,0,2012-10-03 01:50:00
4:20 AM,68.0,64.4,88,30.09,-9999.0,Variable,2.3,-,N/A,,Clear,0,2012-10-03 02:20:00
4:50 AM,68.0,62.6,83,30.09,-9999.0,Variable,1.2,-,N/A,,Clear,0,2012-10-03 02:50:00
5:20 AM,66.2,62.6,88,30.09,-9999.0,Variable,2.3,-,N/A,,Clear,0,2012-10-03 03:20:00
5:50 AM,66.2,62.6,88,30.09,-9999.0,Variable,1.2,-,N/A,,Clear,0,2012-10-03 03:50:00
6:20 AM,66.2,62.6,88,30.09,-9999.0,Variable,2.3,-,N/A,,Clear,0,2012-10-03 04:20:00
6:50 AM,68.0,62.6,83,30.09,6.2,SSW,3.5,-,N/A,,Partly Cloudy,210,2012-10-03 04:50:00
7:20 AM,66.2,62.6,88,30.09,6.2,Variable,2.3,-,N/A,,Partly Cloudy,0,2012-10-03 05:20:00
7:50 AM,68.0,62.6,83,30.09,6.2,Calm,Calm,-,N/A,,Partly Cloudy,0,2012-10-03 05:50:00
8:20 AM,69.8,62.6,78,30.09,6.2,NE,1.2,-,N/A,,Partly Cloudy,50,2012-10-03 06:20:00
8:50 AM,71.6,64.4,78,30.12,-9999.0,Variable,1.2,-,N/A,,Clear,0,2012-10-03 06:50:00
9:20 AM,71.6,62.6,73,30.12,-9999.0,Variable,3.5,-,N/A,,Clear,0,2012-10-03 07:20:00
9:50 AM,73.4,59.0,61,30.12,6.2,West,4.6,-,N/A,,Partly Cloudy,280,2012-10-03 07:50:00
10:20 AM,73.4,57.2,57,30.12,6.2,WNW,6.9,-,N/A,,Partly Cloudy,300,2012-10-03 08:20:00
10:50 AM,75.2,57.2,53,30.12,6.2,West,9.2,-,N/A,,Partly Cloudy,280,2012-10-03 08:50:00
11:20 AM,75.2,59.0,57,30.15,6.2,West,9.2,-,N/A,,Partly Cloudy,280,2012-10-03 09:20:00
11:50 AM,75.2,57.2,53,30.12,6.2,West,10.4,-,N/A,,Partly Cloudy,270,2012-10-03 09:50:00
12:20 PM,75.2,57.2,53,30.12,6.2,West,10.4,-,N/A,,Partly Cloudy,280,2012-10-03 10:20:00
12:50 PM,75.2,59.0,57,30.12,6.2,NW,8.1,-,N/A,,Partly Cloudy,310,2012-10-03 10:50:00
1:20 PM,77.0,57.2,50,30.12,6.2,West,6.9,-,N/A,,Partly Cloudy,280,2012-10-03 11:20:00
2:20 PM,75.2,59.0,57,30.12,6.2,West,11.5,-,N/A,,Partly Cloudy,280,2012-10-03 12:20:00
2:50 PM,77.0,57.2,50,30.12,6.2,West,8.1,-,N/A,,Partly Cloudy,260,2012-10-03 12:50:00
3:20 PM,75.2,59.0,57,30.12,6.2,West,9.2,-,N/A,,Partly Cloudy,260,2012-10-03 13:20:00
3:50 PM,75.2,59.0,57,30.12,6.2,West,10.4,-,N/A,,Scattered Clouds,260,2012-10-03 13:50:00
4:20 PM,75.2,60.8,61,30.12,6.2,West,9.2,-,N/A,,Scattered Clouds,270,2012-10-03 14:20:00
4:50 PM,73.4,59.0,61,30.09,6.2,West,8.1,-,N/A,,Scattered Clouds,260,2012-10-03 14:50:00
5:20 PM,73.4,59.0,61,30.09,6.2,WSW,8.1,-,N/A,,Scattered Clouds,250,2012-10-03 15:20:00
5:50 PM,73.4,59.0,61,30.09,6.2,West,8.1,-,N/A,,Scattered Clouds,260,2012-10-03 15:50:00
6:20 PM,71.6,57.2,60,30.09,6.2,SW,6.9,-,N/A,,Scattered Clouds,230,2012-10-03 16:20:00
6:50 PM,69.8,59.0,68,30.09,6.2,West,8.1,-,N/A,,Scattered Clouds,260,2012-10-03 16:50:00
7:20 PM,68.0,59.0,73,30.12,6.2,West,6.9,-,N/A,,Scattered Clouds,260,2012-10-03 17:20:00
7:50 PM,69.8,57.2,64,30.12,6.2,WSW,4.6,-,N/A,,Scattered Clouds,250,2012-10-03 17:50:00
8:20 PM,68.0,57.2,68,30.12,6.2,West,4.6,-,N/A,,Partly Cloudy,260,2012-10-03 18:20:00
8:50 PM,68.0,59.0,73,30.12,6.2,WSW,3.5,-,N/A,,Partly Cloudy,250,2012-10-03 18:50:00
9:20 PM,68.0,59.0,73,30.12,6.2,WSW,2.3,-,N/A,,Partly Cloudy,250,2012-10-03 19:20:00
9:50 PM,68.0,59.0,73,30.12,6.2,WSW,2.3,-,N/A,,Partly Cloudy,250,2012-10-03 19:50:00
10:20 PM,66.2,57.2,73,30.12,6.2,Calm,Calm,-,N/A,,Partly Cloudy,0,2012-10-03 20:20:00
10:50 PM,66.2,59.0,78,30.12,6.2,Variable,1.2,-,N/A,,Partly Cloudy,0,2012-10-03 20:50:00
11:20 PM,66.2,59.0,78,30.12,-9999.0,NE,3.5,-,N/A,,Clear,50,2012-10-03 21:20:00
11:50 PM,66.2,59.0,78,30.12,-9999.0,ENE,2.3,-,N/A,,Clear,60,2012-10-03 21:50:00